一网星座-0639星 (ONEWEB-0639)

导读 | 星芒AI

ONEWEB-0639 是 OneWeb 卫星通信公司发射的低轨通信卫星之一,属于其全球宽带互联网星座计划。该卫星运行于约 1200 公里的近地轨道,采用先进的通信技术,旨在为全球用户提供高速、低延迟的互联网服务,尤其关注偏远和网络覆盖不足的地区。作为 OneWeb 星座的重要组成部分,ONEWEB-0639 有助于增强全球通信基础设施,支持航空、航海及地面用户的连接需求。

基本信息
目录编号:
55803
目录名称:
ONEWEB-0639
国际标识:
2023-029H
轨道中心:
EARTH
卫星名称:
一网星座-0639星
卫星全名:
一网星座-0639星 (ONEWEB-0639)
卫星状态:
在轨 (已飞行1013 天)
发射日期:
2023-03-09 UTC
国别 :
英国 (GB)
星等 :
--
轨道信息
数据来源 国际轨道数据 AOE轨道数据
星历时间 2025-12-15T14:02:54+0800
20小时前
查看轨道信息
2025-12-15T06:00:00+0800
1天前
查看轨道信息
半长轴 7563.909km 7563.908km
偏心率 0.000244 0.0002555
轨道倾角 87.919° 87.920°
近地点辐角 62.931° 58.344°
升交点赤经 341.579° 341.647°
平近点角 297.207° 149.474°
近地点 1183.928km 1183.84km
远地点 1187.62km 1187.706km
周期 109.114分钟 109.114分钟
每日圈数 13.197247 13.197249
详细信息
平衡模式:
三轴稳定
覆盖范围:
全球
运营商:
一网卫星公司
运营商所在国:
英国
制造商(研发单位):
一网卫星公司
制造商所在国:
英国
使用方式:
暂无
卫星简介
OneWeb卫星网络由648颗重约125公斤的微型卫星组成,运行在1200公里的轨道上。 每颗卫星都能够提供至少每秒8千兆位的吞吐量,以使用其高吞吐量的Ku频段有效载荷为家庭和移动平台提供互联网接入。该卫星仍在工作。
2D轨道图
3D轨道图
轨道高度分析图
轨道倾角分析图
轨道综合分析图
查看轨道综合分析图